Preview of NWS' New Version of Forecast
This preview is not operational and should not be used for support decisions.

Regional Weather Roundup (RWR)

Issued by National Weather Service (NWS)

                            
000
ASUS46 KPQR 201810
RWROR 

OREGON REGIONAL WEATHER ROUNDUP
NATIONAL WEATHER SERVICE PORTLAND OR
1000 AM PST WED FEB 20 2019

NOTE: "FAIR" INDICATES FEW OR NO CLOUDS BELOW 12,000 FEET WITH
NO SIGNIFICANT WEATHER AND/OR OBSTRUCTIONS TO VISIBILITY.

ORZ001>013-201900-
NORTHWEST OREGON

  
CITY           SKY/WX    TMP DP  RH WIND       PRES   REMARKS
ASTORIA        PTSUNNY   44  39  82 W6        29.86F                  
6HR MIN TEMP:  38; 6HR MAX TEMP:  44; 6HR PCP:  0.12;                

TILLAMOOK      LGT RAIN  41  39  93 S3        29.91S                  
NEWPORT        MOSUNNY   46  39  76 NW7       29.93F                  
PORTLAND       PTSUNNY   43  41  93 SW7       29.87F                  
6HR MIN TEMP:  38; 6HR MAX TEMP:  43; 6HR PCP: TRACE;                

VANCOUVER WA   CLOUDY    42  36  79 S3        29.87S                  
6HR MIN TEMP:  36; 6HR MAX TEMP:  42; 6HR PCP: TRACE;                

SCAPPOOSE      MOSUNNY   46  37  71 CALM      29.86F                  
6HR MIN TEMP:  34; 6HR MAX TEMP:  46;                                

HILLSBORO      PTSUNNY   40  36  86 SW3       29.88F                  
6HR MIN TEMP:  34; 6HR MAX TEMP:  40; 6HR PCP:  0.01;                

AURORA         PTSUNNY   40  38  93 SW7       29.90S                  
6HR MIN TEMP:  36; 6HR MAX TEMP:  41;                                

MCMINNVILLE    PTSUNNY   40  37  89 SW7       29.89F                  
6HR MIN TEMP:  33; 6HR MAX TEMP:  40; 6HR PCP:  0.05;                

SALEM          CLOUDY    39  36  89 SW6       29.89F                  
6HR MIN TEMP:  38; 6HR MAX TEMP:  41; 6HR PCP:  0.10;                

CORVALLIS      LGT RAIN  39  37  92 S7        29.92F                  
EUGENE         LGT RAIN  40  36  86 SW10      29.93F                  
6HR MIN TEMP:  38; 6HR MAX TEMP:  41; 6HR PCP:  0.13;                

$$

ORZ021-028-201900-
SOUTHWEST OREGON

  
CITY           SKY/WX    TMP DP  RH WIND       PRES   REMARKS
NORTH BEND     CLOUDY    42  40  92 SE9       29.99F                  
6HR MIN TEMP:  40; 6HR MAX TEMP:  45; 6HR PCP:  0.15;                

BROOKINGS      LGT RAIN  41  37  86 CALM      30.01F                  
ROSEBURG       CLOUDY    42  38  85 S3        29.95F                  
6HR MIN TEMP:  38; 6HR MAX TEMP:  42; 6HR PCP:  0.03;                

SEXTON SUMMIT  SNOW      30  29  96 CALM      29.84F VSB 1/4          
6HR MIN TEMP:  28; 6HR MAX TEMP:  30; 6HR PCP:  0.17;                

GRANTS PASS    MIX PCPN  37  36  93 CALM      29.99                   
MEDFORD        LGT RAIN  38  32  79 W5        29.94F                  
6HR MIN TEMP:  34; 6HR MAX TEMP:  38; 6HR PCP: TRACE;                

$$

ORZ014>016-041-201900-
COLUMBIA GORGE

  
CITY           SKY/WX    TMP DP  RH WIND       PRES   REMARKS
TROUTDALE      CLOUDY    42  36  79 SW9       29.87F                  
6HR MIN TEMP:  39; 6HR MAX TEMP:  42; 6HR PCP:  0.01;                

HOOD RIVER     CLOUDY    39  32  75 NW8       29.81F                  
THE DALLES     CLOUDY    40  31  70 NW10      29.82S                  
6HR MIN TEMP:  35; 6HR MAX TEMP:  41;                                

$$

ORZ029>031-041-044-049-050-061>064-502-503-505>511-201900-
EASTERN OREGON

  
CITY           SKY/WX    TMP DP  RH WIND       PRES   REMARKS
MADRAS         NOT AVBL                                               
REDMOND        PTSUNNY   35  23  61 NW14      29.75F WCI  26          
6HR MIN TEMP:  30; 6HR MAX TEMP:  36;                                

BEND           PTSUNNY   34  19  55 NW12      29.75S WCI  25          
PRINEVILLE     MOSUNNY   34  23  64 W12G18    29.74  WCI  25          
KLAMATH FALLS  SUNNY     29  19  66 W14       29.79S WCI  18          
6HR MIN TEMP:  23; 6HR MAX TEMP:  29; 6HR PCP: TRACE;                

LAKEVIEW       MOSUNNY   28  15  58 W12       29.74F WCI  18          
HERMISTON      CLOUDY    30  24  78 E6        29.84S                  
6HR MIN TEMP:  29; 6HR MAX TEMP:  31; 6HR PCP:  0.01;                

PENDLETON      LGT SNOW  26  22  84 E5        29.79S FOG              
6HR MIN TEMP:  25; 6HR MAX TEMP:  33; 6HR PCP: TRACE;                

JOHN DAY       LGT SNOW  30  29  94 W8        29.68                   
MEACHAM          N/A     25  22  88 CALM      29.66S                  
6HR MIN TEMP:  25; 6HR MAX TEMP:  28; 6HR PCP:  0.27;                

LA GRANDE      FLURRIES  33  26  75 NW12      29.70S WCI  24          
6HR MIN TEMP:  28; 6HR MAX TEMP:  33; 6HR PCP:  0.06;                

BAKER CITY     CLOUDY    30  25  81 SW6       29.67S                  
6HR MIN TEMP:  25; 6HR MAX TEMP:  30; 6HR PCP:  0.02;                

BURNS          PTSUNNY   30  20  66 W9        29.67F                  
6HR MIN TEMP:  20; 6HR MAX TEMP:  32; 6HR PCP:  0.01;                

ROME             N/A     30  25  81 SW9       29.67S                  
6HR MIN TEMP:  28; 6HR MAX TEMP:  31;                                

ONTARIO        LGT SNOW  33  28  81 CALM      29.73S                  
6HR MIN TEMP:  31; 6HR MAX TEMP:  33; 6HR PCP: TRACE;                

$$